Pittsfield, IL

6:20 AM CST on February 23, 2017 (GMT -0600)
Pittsfield Penstone Municipal

Weather History for KPPQ - February, 2013

Change the Weather History Date:

Thursday, February 14, 2013

  Actual Average (KUIN) Record (KUIN)
Temperature  
Mean Temperature 42 °F -  
Max Temperature 49 °F 37 °F 72 °F (1954)
Min Temperature 35 °F 22 °F -13 °F (1905)
Degree Days  
Heating Degree Days 22    
Moisture  
Dew Point 31 °F    
Average Humidity 65    
Maximum Humidity 81    
Minimum Humidity 49    
Precipitation  
Precipitation 0.00 in - - ()
Sea Level Pressure  
Sea Level Pressure 29.91 in    
Wind  
Wind Speed 8 mph (West)    
Max Wind Speed 18 mph    
Max Gust Speed 25 mph    
Visibility 10 miles    
Events      
Averages and records for this station are not official NWS values.
T = Trace of Precipitation, MM = Missing Value Source: NWS Daily Summary

Daily Weather History Graph

Daily Weather History Graph

Search for Another Location

Airport or City:

Trip Planner

Search our weather history database for the weather conditions in past years. The results will help you decide how hot, cold, wet, or windy it might be!

Date:

Astronomy

Feb. 14, 2013 Rise Set
Actual Time 6:56 AM CST 5:38 PM CST
Civil Twilight 6:28 AM CST 6:06 PM CST
Nautical Twilight 5:57 AM CST 6:37 PM CST
Astronomical Twilight 5:25 AM CST 7:09 PM CST
Moon 8:59 AM CST (2/14) 10:40 PM CST (2/14)
Length of Visible Light 11h 37m
Length of Day
10h 42m
Waxing Crescent, 22% of the Moon is Illuminated
Feb 14
Waxing Crescent
Feb 17
First Quarter
Feb 25
Full
Mar 4
Last Quarter
Mar 11
New

Hourly Weather History & Observations

Time (CST) Temp. Windchill Dew Point Humidity Pressure Visibility Wind Dir Wind Speed Gust Speed Precip Events Conditions
12:15 AM 39.2 °F 35.0 °F 32.2 °F 76% 29.80 in 10.0 mi SSW 5.8 mph - N/A   Clear
12:35 AM 39.6 °F 34.7 °F 32.4 °F 75% 29.80 in 10.0 mi SSW 6.9 mph - N/A   Clear
12:55 AM 40.3 °F 34.4 °F 32.9 °F 75% 29.80 in 10.0 mi SW 9.2 mph - N/A   Clear
1:15 AM 40.1 °F 34.1 °F 32.9 °F 75% 29.79 in 10.0 mi SSW 9.2 mph - N/A   Clear
1:35 AM 40.1 °F 33.6 °F 32.9 °F 75% 29.79 in 10.0 mi SW 10.4 mph - N/A   Clear
1:55 AM 39.9 °F 34.5 °F 32.9 °F 76% 29.79 in 10.0 mi SW 8.1 mph - N/A   Clear
2:15 AM 39.4 °F 34.5 °F 32.9 °F 78% 29.79 in 10.0 mi SW 6.9 mph - N/A   Clear
2:35 AM 39.2 °F 34.2 °F 32.7 °F 78% 29.79 in 10.0 mi SSW 6.9 mph - N/A   Scattered Clouds
2:55 AM 38.8 °F 33.8 °F 32.5 °F 78% 29.78 in 10.0 mi SSW 6.9 mph - N/A   Scattered Clouds
3:15 AM 38.5 °F 33.4 °F 32.4 °F 79% 29.78 in 10.0 mi SSW 6.9 mph - N/A   Scattered Clouds
3:35 AM 38.3 °F 33.9 °F 32.2 °F 79% 29.78 in 10.0 mi SW 5.8 mph - N/A   Scattered Clouds
3:55 AM 38.3 °F 33.2 °F 32.2 °F 79% 29.78 in 10.0 mi SSW 6.9 mph - N/A   Mostly Cloudy
4:15 AM 38.3 °F 34.8 °F 32.0 °F 78% 29.79 in 10.0 mi SW 4.6 mph - N/A   Scattered Clouds
4:35 AM 37.6 °F 32.3 °F 32.0 °F 80% 29.78 in 10.0 mi SW 6.9 mph - N/A   Clear
4:55 AM 37.6 °F 33.1 °F 31.8 °F 80% 29.79 in 10.0 mi SW 5.8 mph - N/A   Clear
5:15 AM 37.2 °F 33.6 °F 31.8 °F 81% 29.79 in 10.0 mi WSW 4.6 mph - N/A   Clear
5:35 AM 37.6 °F 33.1 °F 31.5 °F 79% 29.80 in 10.0 mi WSW 5.8 mph - N/A   Clear
5:55 AM 37.4 °F 33.8 °F 31.1 °F 78% 29.80 in 10.0 mi WSW 4.6 mph - N/A   Clear
6:15 AM 37.2 °F 34.7 °F 31.1 °F 79% 29.81 in 10.0 mi WSW 3.5 mph - N/A   Clear
6:35 AM 36.9 °F 31.4 °F 31.1 °F 80% 29.82 in 10.0 mi West 6.9 mph - N/A   Clear
6:55 AM 37.0 °F 32.4 °F 31.1 °F 79% 29.83 in 10.0 mi West 5.8 mph - N/A   Clear
7:15 AM 37.2 °F 31.2 °F 30.9 °F 78% 29.84 in 10.0 mi West 8.1 mph - N/A   Clear
7:35 AM 37.0 °F 31.6 °F 30.9 °F 79% 29.85 in 10.0 mi WSW 6.9 mph - N/A   Clear
7:55 AM 38.3 °F 33.2 °F 31.1 °F 75% 29.85 in 10.0 mi West 6.9 mph - N/A   Clear
8:15 AM 39.4 °F 33.2 °F 31.5 °F 73% 29.86 in 10.0 mi West 9.2 mph - N/A   Clear
8:35 AM 41.0 °F 33.9 °F 31.5 °F 69% 29.87 in 10.0 mi West 12.7 mph 18.4 mph N/A   Clear
8:55 AM 41.9 °F 34.6 °F 31.8 °F 67% 29.88 in 10.0 mi West 13.8 mph 18.4 mph N/A   Clear
9:15 AM 42.3 °F 33.8 °F 32.0 °F 67% 29.88 in 10.0 mi West 18.4 mph 23.0 mph N/A   Clear
9:35 AM 43.0 °F 35.1 °F 32.0 °F 65% 29.88 in 10.0 mi WNW 17.3 mph 24.2 mph N/A   Clear
9:55 AM 43.3 °F 35.5 °F 32.0 °F 64% 29.88 in 10.0 mi WNW 17.3 mph 25.3 mph N/A   Clear
10:15 AM 44.1 °F 37.1 °F 32.2 °F 63% 29.90 in 10.0 mi WNW 15.0 mph 24.2 mph N/A   Clear
10:35 AM 44.6 °F 37.8 °F 32.4 °F 62% 29.90 in 10.0 mi WNW 15.0 mph 23.0 mph N/A   Clear
10:55 AM 45.1 °F 38.4 °F 32.0 °F 60% 29.91 in 10.0 mi WNW 15.0 mph 19.6 mph N/A   Clear
11:15 AM 45.5 °F 40.3 °F 32.5 °F 61% 29.91 in 10.0 mi NW 10.4 mph - N/A   Clear
11:35 AM 46.6 °F - 32.5 °F 58% 29.92 in 10.0 mi West 10.4 mph - N/A   Clear
11:55 AM 47.3 °F - 32.7 °F 57% 29.92 in 10.0 mi WNW 10.4 mph 16.1 mph N/A   Scattered Clouds
12:15 PM 48.0 °F - 32.5 °F 55% 29.93 in 10.0 mi West 13.8 mph 19.6 mph N/A   Scattered Clouds
12:35 PM 47.7 °F - 32.0 °F 55% 29.92 in 10.0 mi West 11.5 mph 21.9 mph N/A   Scattered Clouds
12:55 PM 47.8 °F - 31.6 °F 53% 29.92 in 10.0 mi West 13.8 mph 20.7 mph N/A   Clear
1:15 PM 48.4 °F - 31.8 °F 53% 29.92 in 10.0 mi West 13.8 mph 19.6 mph N/A   Scattered Clouds
1:35 PM 48.4 °F - 31.8 °F 53% 29.92 in 10.0 mi West 11.5 mph 18.4 mph N/A   Scattered Clouds
1:55 PM 49.1 °F - 32.0 °F 52% 29.92 in 10.0 mi WNW 13.8 mph 20.7 mph N/A   Scattered Clouds
2:15 PM 48.6 °F - 32.2 °F 53% 29.93 in 10.0 mi WNW 15.0 mph 18.4 mph N/A   Scattered Clouds
2:35 PM 48.6 °F - 31.3 °F 51% 29.93 in 10.0 mi West 12.7 mph 20.7 mph N/A   Scattered Clouds
2:55 PM 49.1 °F - 30.9 °F 50% 29.94 in 10.0 mi West 13.8 mph 21.9 mph N/A   Scattered Clouds
3:15 PM 48.4 °F - 30.7 °F 51% 29.96 in 10.0 mi West 13.8 mph 21.9 mph N/A   Mostly Cloudy
3:35 PM 48.9 °F - 31.1 °F 50% 29.96 in 10.0 mi WNW 11.5 mph 19.6 mph N/A   Mostly Cloudy
3:55 PM 48.9 °F - 30.9 °F 50% 29.96 in 10.0 mi WNW 8.1 mph - N/A   Mostly Cloudy
4:15 PM 49.1 °F - 30.7 °F 49% 29.97 in 10.0 mi West 10.4 mph 16.1 mph N/A   Mostly Cloudy
4:35 PM 48.4 °F - 30.7 °F 51% 29.97 in 10.0 mi WNW 12.7 mph 19.6 mph N/A   Mostly Cloudy
4:55 PM 47.5 °F - 30.0 °F 51% 29.98 in 10.0 mi WNW 11.5 mph 17.3 mph N/A   Scattered Clouds
5:15 PM 46.6 °F - 30.2 °F 53% 29.98 in 10.0 mi West 6.9 mph - N/A   Clear
5:35 PM 45.5 °F 42.5 °F 29.8 °F 54% 29.99 in 10.0 mi WNW 5.8 mph - N/A   Clear
5:55 PM 43.5 °F 40.9 °F 30.4 °F 60% 30.00 in 10.0 mi NNW 4.6 mph - N/A   Scattered Clouds
6:15 PM 43.9 °F 42.3 °F 30.6 °F 59% 30.01 in 10.0 mi West 3.5 mph - N/A   Mostly Cloudy
6:35 PM 43.0 °F - 30.7 °F 62% 30.02 in 10.0 mi Calm Calm - N/A   Mostly Cloudy
6:55 PM 43.5 °F - 30.7 °F 61% 30.03 in 10.0 mi Calm Calm - N/A   Overcast
7:15 PM 42.1 °F - 30.9 °F 65% 30.03 in 10.0 mi Calm Calm - N/A   Scattered Clouds
7:35 PM 42.4 °F 40.7 °F 30.2 °F 62% 30.03 in 10.0 mi WSW 3.5 mph - N/A   Clear
7:55 PM 41.4 °F 36.8 °F 29.8 °F 64% 30.03 in 10.0 mi WNW 6.9 mph - N/A   Clear
8:15 PM 42.6 °F 37.8 °F 28.4 °F 57% 30.04 in 10.0 mi WNW 8.1 mph - N/A   Scattered Clouds
8:35 PM 42.3 °F 37.3 °F 28.0 °F 57% 30.03 in 10.0 mi WNW 8.1 mph - N/A   Scattered Clouds
8:55 PM 41.7 °F 38.0 °F 27.9 °F 58% 30.04 in 10.0 mi WNW 5.8 mph - N/A   Scattered Clouds
9:15 PM 40.6 °F 36.0 °F 28.2 °F 61% 30.04 in 10.0 mi NW 6.9 mph - N/A   Scattered Clouds
9:35 PM 40.5 °F 37.3 °F 27.3 °F 59% 30.05 in 10.0 mi NW 4.6 mph - N/A   Scattered Clouds
9:55 PM 39.0 °F 35.7 °F 27.5 °F 63% 30.05 in 10.0 mi NW 4.6 mph - N/A   Mostly Cloudy
10:15 PM 40.3 °F 34.9 °F 27.3 °F 60% 30.05 in 10.0 mi NW 8.1 mph - N/A   Overcast
10:35 PM 39.4 °F 33.2 °F 26.8 °F 61% 30.06 in 10.0 mi NW 9.2 mph - N/A   Mostly Cloudy
10:55 PM 38.3 °F 31.9 °F 26.4 °F 62% 30.06 in 10.0 mi NW 9.2 mph - N/A   Scattered Clouds
11:15 PM 37.6 °F 30.5 °F 26.8 °F 65% 30.07 in 10.0 mi NW 10.4 mph - N/A   Clear
11:35 PM 36.9 °F 32.2 °F 26.4 °F 66% 30.07 in 10.0 mi WNW 5.8 mph - N/A   Clear
11:55 PM 35.2 °F 29.5 °F 26.6 °F 71% 30.08 in 10.0 mi WNW 6.9 mph - N/A   Clear